| time (UTC) | temp C | wind direction | speed KPH | gust KPH | rain 1hr cm | rain 24hr cm | rain mn cm | humidity % | barometer mb |
| 20260903151239 | 33 | 187 | 1.6 | 3.2 | 0.00 | 0.00 | 0.00 | 65 | 1018.1 |
| 20260903150231 | 33 | 200 | 1.6 | 3.2 | 0.00 | 0.00 | 0.00 | 67 | 1018.3 |
| 20260903145242 | 32 | 146 | 1.6 | 3.2 | 0.00 | 0.00 | 0.00 | 69 | 1018.1 |
| 20260903144231 | 32 | 237 | 1.6 | 3.2 | 0.00 | 0.00 | 0.00 | 70 | 1018.3 |
| 20260903143238 | 32 | 183 | 1.6 | 3.2 | 0.00 | 0.00 | 0.00 | 70 | 1018.2 |
| 20260903142248 | 31 | 151 | 1.6 | 1.6 | 0.00 | 0.00 | 0.00 | 73 | 1018.2 |
| 20260903141303 | 31 | 252 | 1.6 | 3.2 | 0.00 | 0.00 | 0.00 | 74 | 1018.2 |
| 20260903140238 | 30 | 213 | 1.6 | 3.2 | 0.00 | 0.00 | 0.00 | 77 | 1018.2 |
| 20260903135252 | 30 | 177 | 1.6 | 3.2 | 0.00 | 0.00 | 0.00 | 77 | 1018.2 |
| 20260903134246 | 29 | 224 | 1.6 | 3.2 | 0.00 | 0.00 | 0.00 | 79 | 1018.3 |
| 20260903133239 | 28 | 0.0 | 0.0 | 0.00 | 0.00 | 0.00 | 81 | 1018.3 | |
| 20260903132232 | 29 | 0.0 | 0.0 | 0.00 | 0.00 | 0.00 | 79 | 1018.3 | |
| 20260903131307 | 28 | 0.0 | 0.0 | 0.00 | 0.00 | 0.00 | 86 | 1018.4 | |
| 20260903130241 | 26 | 0.0 | 0.0 | 0.00 | 0.00 | 0.00 | 97 | 1018.2 | |
| 20260903125235 | 23 | 0.0 | 0.0 | 0.00 | 0.00 | 0.00 | 99 | 1018.3 | |
| 20260903124250 | 23 | 0.0 | 0.0 | 0.00 | 0.00 | 0.00 | 99 | 1018.3 | |
| 20260903123243 | 22 | 0.0 | 0.0 | 0.00 | 0.00 | 0.00 | 99 | 1018.4 | |
| 20260903122238 | 22 | 0.0 | 0.0 | 0.00 | 0.00 | 0.00 | 99 | 1018.3 | |
| 20260903121234 | 22 | 0.0 | 0.0 | 0.00 | 0.00 | 0.00 | 99 | 1018.3 | |
| 20260903120249 | 22 | 0.0 | 0.0 | 0.00 | 0.00 | 0.00 | 99 | 1018.1 | |
| 20260903115243 | 22 | 0.0 | 0.0 | 0.00 | 0.00 | 0.00 | 99 | 1018.2 | |
| 20260903114238 | 22 | 0.0 | 0.0 | 0.00 | 0.00 | 0.00 | 99 | 1018.0 | |
| 20260903113234 | 22 | 0.0 | 0.0 | 0.00 | 0.00 | 0.00 | 99 | 1017.9 | |
| 20260903112247 | 22 | 0.0 | 0.0 | 0.00 | 0.00 | 0.00 | 99 | 1017.9 | |
| 20260903111242 | 22 | 0.0 | 0.0 | 0.00 | 0.00 | 0.00 | 99 | 1017.9 | |
| 20260903110256 | 22 | 0.0 | 0.0 | 0.00 | 0.00 | 0.00 | 99 | 1017.9 | |
| 20260903105230 | 22 | 0.0 | 0.0 | 0.00 | 0.00 | 0.00 | 99 | 1017.7 | |
| 20260903104245 | 22 | 0.0 | 0.0 | 0.00 | 0.00 | 0.00 | 99 | 1017.5 | |
| 20260903103240 | 22 | 0.0 | 0.0 | 0.00 | 0.00 | 0.00 | 99 | 1017.5 | |
| 20260903102236 | 22 | 0.0 | 0.0 | 0.00 | 0.00 | 0.00 | 99 | 1017.6 | |
| 20260903101249 | 22 | 0.0 | 0.0 | 0.00 | 0.00 | 0.00 | 99 | 1017.5 | |
| 20260903100243 | 22 | 0.0 | 0.0 | 0.00 | 0.00 | 0.00 | 99 | 1017.5 | |
| 20260903095259 | 22 | 0.0 | 0.0 | 0.00 | 0.00 | 0.00 | 99 | 1017.4 | |
| 20260903094233 | 22 | 0.0 | 0.0 | 0.00 | 0.00 | 0.00 | 99 | 1017.3 | |
| 20260903093248 | 22 | 0.0 | 0.0 | 0.00 | 0.00 | 0.00 | 99 | 1017.3 | |
| 20260903092306 | 22 | 0.0 | 0.0 | 0.00 | 0.00 | 0.00 | 99 | 1017.5 | |
| 20260903091238 | 22 | 0.0 | 0.0 | 0.00 | 0.00 | 0.00 | 99 | 1017.5 | |
| 20260903090233 | 22 | 0.0 | 0.0 | 0.00 | 0.00 | 0.00 | 99 | 1017.3 | |
| 20260903085247 | 22 | 0.0 | 0.0 | 0.00 | 0.00 | 0.00 | 99 | 1017.5 | |
| 20260903084241 | 22 | 0.0 | 0.0 | 0.00 | 0.00 | 0.00 | 99 | 1017.3 | |
| 20260903083236 | 22 | 0.0 | 0.0 | 0.00 | 0.00 | 0.00 | 98 | 1017.2 | |
| 20260903082231 | 22 | 0.0 | 0.0 | 0.00 | 0.00 | 0.00 | 98 | 1017.0 | |
| 20260903081245 | 22 | 0.0 | 0.0 | 0.00 | 0.00 | 0.00 | 98 | 1017.1 | |
| 20260903080240 | 22 | 0.0 | 0.0 | 0.00 | 0.00 | 0.00 | 98 | 1017.1 | |
| 20260903075235 | 23 | 0.0 | 0.0 | 0.00 | 0.00 | 0.00 | 98 | 1017.1 | |
| 20260903074249 | 23 | 0.0 | 0.0 | 0.00 | 0.00 | 0.00 | 98 | 1016.9 | |
| 20260903073244 | 23 | 0.0 | 0.0 | 0.00 | 0.00 | 0.00 | 98 | 1016.9 | |
| 20260903072240 | 23 | 0.0 | 0.0 | 0.00 | 0.00 | 0.00 | 98 | 1017.1 | |
| 20260903071254 | 23 | 0.0 | 0.0 | 0.00 | 0.00 | 0.00 | 98 | 1017.0 | |
| 20260903070248 | 23 | 0.0 | 0.0 | 0.00 | 0.00 | 0.00 | 98 | 1016.9 | |
| 20260903065241 | 23 | 0.0 | 0.0 | 0.00 | 0.00 | 0.00 | 98 | 1017.1 | |
| 20260903064258 | 23 | 0.0 | 0.0 | 0.00 | 0.00 | 0.00 | 98 | 1017.1 | |
| 20260903063234 | 23 | 0.0 | 0.0 | 0.00 | 0.00 | 0.00 | 98 | 1017.2 | |
| 20260903062249 | 23 | 0.0 | 0.0 | 0.00 | 0.00 | 0.00 | 97 | 1017.2 | |
| 20260903061244 | 23 | 0.0 | 0.0 | 0.00 | 0.00 | 0.00 | 97 | 1017.2 | |
| 20260903060239 | 23 | 0.0 | 0.0 | 0.00 | 0.00 | 0.00 | 97 | 1017.3 | |
| 20260903055233 | 23 | 0.0 | 0.0 | 0.00 | 0.00 | 0.00 | 98 | 1017.3 | |
| 20260903054248 | 23 | 0.0 | 0.0 | 0.00 | 0.00 | 0.00 | 98 | 1017.2 | |
| 20260903053242 | 23 | 0.0 | 0.0 | 0.00 | 0.00 | 0.00 | 97 | 1017.3 | |
| 20260903052236 | 23 | 0.0 | 0.0 | 0.00 | 0.00 | 0.00 | 97 | 1017.3 | |
| 20260903051231 | 23 | 0.0 | 0.0 | 0.00 | 0.00 | 0.00 | 96 | 1017.3 | |
| 20260903050246 | 24 | 0.0 | 0.0 | 0.00 | 0.00 | 0.00 | 96 | 1017.3 | |
| 20260903045240 | 24 | 0.0 | 0.0 | 0.00 | 0.00 | 0.00 | 96 | 1017.2 | |
| 20260903044234 | 24 | 0.0 | 0.0 | 0.00 | 0.00 | 0.00 | 96 | 1017.1 | |
| 20260903043249 | 24 | 0.0 | 0.0 | 0.00 | 0.00 | 0.00 | 96 | 1017.1 | |
| 20260903042244 | 24 | 0.0 | 0.0 | 0.00 | 0.00 | 0.00 | 95 | 1017.1 | |
| 20260903041238 | 24 | 0.0 | 0.0 | 0.00 | 0.00 | 0.00 | 95 | 1017.1 | |
| 20260903040233 | 25 | 0.0 | 0.0 | 0.00 | 0.00 | 0.00 | 95 | 1017.1 | |
| 20260903035248 | 25 | 0.0 | 0.0 | 0.00 | 0.00 | 0.00 | 94 | 1017.2 | |
| 20260903034243 | 25 | 0.0 | 0.0 | 0.00 | 0.00 | 0.00 | 94 | 1017.2 | |
| 20260903033237 | 25 | 0.0 | 0.0 | 0.00 | 0.00 | 0.00 | 93 | 1017.1 | |
| 20260903032233 | 25 | 0.0 | 0.0 | 0.00 | 0.00 | 0.00 | 92 | 1017.3 | |
| 20260903031246 | 26 | 0.0 | 0.0 | 0.00 | 0.00 | 0.00 | 91 | 1017.2 | |
| 20260903030241 | 26 | 0.0 | 0.0 | 0.00 | 0.00 | 0.00 | 91 | 1017.2 | |
| 20260903025235 | 26 | 0.0 | 0.0 | 0.00 | 0.00 | 0.00 | 91 | 1017.2 | |
| 20260903024250 | 26 | 0.0 | 0.0 | 0.00 | 0.00 | 0.00 | 90 | 1017.1 | |
| 20260903023244 | 26 | 0.0 | 0.0 | 0.00 | 0.00 | 0.00 | 89 | 1017.1 | |
| 20260903022239 | 26 | 0.0 | 0.0 | 0.00 | 0.00 | 0.00 | 88 | 1017.1 | |
| 20260903021235 | 26 | 0.0 | 0.0 | 0.00 | 0.00 | 0.00 | 89 | 1017.1 | |
| 20260903020250 | 26 | 0.0 | 0.0 | 0.00 | 0.00 | 0.00 | 89 | 1017.0 | |
| 20260903015245 | 27 | 0.0 | 0.0 | 0.00 | 0.00 | 0.00 | 89 | 1016.9 | |
| 20260903014240 | 27 | 0.0 | 0.0 | 0.00 | 0.00 | 0.00 | 89 | 1017.0 | |
| 20260903013236 | 27 | 0.0 | 0.0 | 0.00 | 0.00 | 0.00 | 88 | 1016.7 | |
| 20260903012231 | 27 | 0.0 | 0.0 | 0.00 | 0.00 | 0.00 | 88 | 1016.7 | |
| 20260903011246 | 27 | 0.0 | 0.0 | 0.00 | 0.00 | 0.00 | 88 | 1016.6 | |
| 20260903010240 | 27 | 0.0 | 0.0 | 0.00 | 0.00 | 0.00 | 86 | 1016.6 | |
| 20260903005235 | 28 | 0.0 | 0.0 | 0.00 | 0.00 | 0.00 | 84 | 1016.5 | |
| 20260903004310 | 28 | 0.0 | 0.0 | 0.00 | 0.00 | 0.00 | 82 | 1016.6 | |
| 20260903003244 | 30 | 0.0 | 0.0 | 0.00 | 0.00 | 0.00 | 78 | 1016.6 | |
| 20260903002238 | 31 | 0.0 | 0.0 | 0.00 | 0.00 | 0.00 | 74 | 1016.5 | |
| 20260903001309 | 31 | 0.0 | 0.0 | 0.00 | 0.00 | 0.00 | 71 | 1016.5 | |
| 20260903000243 | 32 | 0.0 | 0.0 | 0.00 | 0.00 | 0.00 | 70 | 1016.5 | |
| 20260902235236 | 32 | 0.0 | 0.0 | 0.00 | 0.00 | 0.00 | 67 | 1016.5 | |
| 20260902234249 | 33 | 354 | 0.0 | 1.6 | 0.00 | 0.00 | 0.00 | 64 | 1016.8 |
| 20260902233245 | 33 | 19 | 0.0 | 1.6 | 0.00 | 0.00 | 0.00 | 63 | 1016.7 |
| 20260902232259 | 34 | 22 | 0.0 | 1.6 | 0.00 | 0.00 | 0.00 | 62 | 1016.8 |
| 20260902231234 | 34 | 41 | 1.6 | 3.2 | 0.00 | 0.00 | 0.00 | 61 | 1016.8 |
| 20260902230248 | 35 | 9 | 0.0 | 1.6 | 0.00 | 0.00 | 0.00 | 60 | 1016.8 |
| 20260902225241 | 35 | 51 | 1.6 | 3.2 | 0.00 | 0.00 | 0.00 | 59 | 1016.8 |
| 20260902224235 | 35 | 52 | 1.6 | 3.2 | 0.00 | 0.00 | 0.00 | 58 | 1016.8 |
| 20260902223245 | 36 | 146 | 1.6 | 3.2 | 0.00 | 0.00 | 0.00 | 55 | 1016.8 |
| 20260902222241 | 36 | 232 | 0.0 | 1.6 | 0.00 | 0.00 | 0.00 | 55 | 1016.8 |
| 20260902221310 | 36 | 309 | 0.0 | 1.6 | 0.00 | 0.00 | 0.00 | 53 | 1016.8 |
| 20260902220241 | 36 | 354 | 0.0 | 1.6 | 0.00 | 0.00 | 0.00 | 55 | 1016.9 |
| 20260902215234 | 36 | 45 | 1.6 | 3.2 | 0.00 | 0.00 | 0.00 | 53 | 1017.0 |
| 20260902214248 | 36 | 288 | 0.0 | 1.6 | 0.00 | 0.00 | 0.00 | 53 | 1017.0 |
| 20260902213237 | 35 | 254 | 0.0 | 4.8 | 0.00 | 0.00 | 0.00 | 56 | 1017.1 |
| 20260902212244 | 37 | 192 | 1.6 | 3.2 | 0.00 | 0.00 | 0.00 | 50 | 1017.2 |
| 20260902211236 | 37 | 209 | 1.6 | 4.8 | 0.00 | 0.00 | 0.00 | 51 | 1017.1 |
| 20260902210245 | 37 | 240 | 1.6 | 3.2 | 0.00 | 0.00 | 0.00 | 51 | 1017.1 |
| 20260902205253 | 36 | 197 | 3.2 | 4.8 | 0.00 | 0.00 | 0.00 | 54 | 1017.3 |
| 20260902204253 | 36 | 184 | 1.6 | 3.2 | 0.00 | 0.00 | 0.00 | 54 | 1017.5 |
| 20260902203233 | 36 | 243 | 1.6 | 3.2 | 0.00 | 0.00 | 0.00 | 56 | 1017.5 |
| 20260902202244 | 35 | 243 | 1.6 | 4.8 | 0.00 | 0.00 | 0.00 | 56 | 1017.5 |
| 20260902201234 | 36 | 194 | 1.6 | 3.2 | 0.00 | 0.00 | 0.00 | 55 | 1017.7 |
| 20260902200245 | 35 | 256 | 1.6 | 3.2 | 0.00 | 0.00 | 0.00 | 54 | 1018.0 |
| 20260902195231 | 35 | 210 | 1.6 | 6.4 | 0.00 | 0.00 | 0.00 | 57 | 1018.0 |
| 20260902194242 | 35 | 224 | 3.2 | 4.8 | 0.00 | 0.00 | 0.00 | 56 | 1018.3 |
| 20260902193233 | 36 | 210 | 3.2 | 4.8 | 0.00 | 0.00 | 0.00 | 51 | 1018.4 |
| 20260902192246 | 36 | 199 | 3.2 | 9.7 | 0.00 | 0.00 | 0.00 | 51 | 1018.4 |
| 20260902191242 | 36 | 273 | 3.2 | 4.8 | 0.00 | 0.00 | 0.00 | 52 | 1018.5 |
| 20260902190239 | 36 | 284 | 3.2 | 6.4 | 0.00 | 0.00 | 0.00 | 51 | 1018.6 |
| 20260902185235 | 36 | 246 | 3.2 | 11.3 | 0.00 | 0.00 | 0.00 | 52 | 1018.6 |
| 20260902184231 | 35 | 246 | 3.2 | 4.8 | 0.00 | 0.00 | 0.00 | 54 | 1018.9 |
| 20260902183247 | 36 | 246 | 3.2 | 9.7 | 0.00 | 0.00 | 0.00 | 52 | 1018.8 |
| 20260902182243 | 35 | 220 | 1.6 | 6.4 | 0.00 | 0.00 | 0.00 | 56 | 1018.7 |
| 20260902181239 | 35 | 258 | 3.2 | 6.4 | 0.00 | 0.00 | 0.00 | 56 | 1018.8 |
| 20260902180234 | 35 | 221 | 3.2 | 4.8 | 0.00 | 0.00 | 0.00 | 58 | 1018.9 |
| 20260902175249 | 35 | 148 | 3.2 | 4.8 | 0.00 | 0.00 | 0.00 | 55 | 1019.1 |
| 20260902174245 | 35 | 206 | 3.2 | 9.7 | 0.00 | 0.00 | 0.00 | 56 | 1019.1 |
| 20260902173238 | 36 | 190 | 3.2 | 6.4 | 0.00 | 0.00 | 0.00 | 56 | 1019.3 |
| 20260902172233 | 35 | 170 | 3.2 | 6.4 | 0.00 | 0.00 | 0.00 | 57 | 1019.3 |
| 20260902171248 | 35 | 223 | 4.8 | 9.7 | 0.00 | 0.00 | 0.00 | 56 | 1019.4 |
| 20260902170243 | 35 | 256 | 3.2 | 6.4 | 0.00 | 0.00 | 0.00 | 57 | 1019.6 |
| 20260902165239 | 35 | 260 | 4.8 | 11.3 | 0.00 | 0.00 | 0.00 | 57 | 1019.8 |
| 20260902164235 | 35 | 265 | 4.8 | 9.7 | 0.00 | 0.00 | 0.00 | 59 | 1019.8 |
| 20260902163244 | 35 | 255 | 4.8 | 11.3 | 0.00 | 0.00 | 0.00 | 58 | 1019.9 |
| 20260902162258 | 35 | 202 | 3.2 | 6.4 | 0.00 | 0.00 | 0.00 | 61 | 1019.9 |
| 20260902161234 | 34 | 231 | 3.2 | 6.4 | 0.00 | 0.00 | 0.00 | 61 | 1019.9 |
| 20260902160249 | 34 | 257 | 1.6 | 6.4 | 0.00 | 0.00 | 0.00 | 63 | 1020.0 |
| 20260902155242 | 33 | 187 | 1.6 | 4.8 | 0.00 | 0.00 | 0.00 | 64 | 1020.1 |
| 20260902154237 | 33 | 202 | 1.6 | 4.8 | 0.00 | 0.00 | 0.00 | 64 | 1020.2 |
| 20260902153231 | 33 | 236 | 1.6 | 4.8 | 0.00 | 0.00 | 0.00 | 65 | 1020.0 |
| 20260902152308 | 33 | 276 | 3.2 | 9.7 | 0.00 | 0.00 | 0.00 | 64 | 1020.1 |